OVO1304 ZGHA-ZBAA

Flight info

Callsign OVO1304
Flight time 1h 55m
Altitude 37100
Route GUD7X GUDRO W56 LEBUN/K0841S1160 W56 NUDKU/K0828S1130 W56 DUGEB DUGEB5D
Aircraft A20N/M-SDE2E3FGHIRWXY/LB1

Departure

Time 2026-05-07 11:22
Airport Changsha Huanghua International Airport (ZGHA)

Arrival

Time 2026-05-07 13:18
Airport Beijing Capital International Airport (ZBAA)
Time Latitude Longitude Altitude Speed Heading
2026-05-07 10:52 28.19237 113.21563 218 ft 0 kts 312°
2026-05-07 11:13 28.19232 113.21569 216 ft 4 kts 312°
2026-05-07 11:14 28.19215 113.21589 214 ft 4 kts 307°
2026-05-07 11:14 28.19207 113.21614 214 ft 4 kts 256°
2026-05-07 11:14 28.19219 113.21639 215 ft 4 kts 220°
2026-05-07 11:14 28.19242 113.21653 210 ft 4 kts 185°
2026-05-07 11:15 28.19249 113.21654 210 ft 0 kts 175°
2026-05-07 11:17 28.19248 113.21654 210 ft 1 kts 175°
2026-05-07 11:18 28.19216 113.21657 213 ft 6 kts 175°
2026-05-07 11:18 28.19162 113.21699 215 ft 18 kts 103°
2026-05-07 11:18 28.19098 113.21773 215 ft 13 kts 172°
2026-05-07 11:18 28.18994 113.21780 216 ft 17 kts 176°
2026-05-07 11:19 28.18862 113.21789 217 ft 21 kts 177°
2026-05-07 11:19 28.18723 113.21798 218 ft 19 kts 176°
2026-05-07 11:19 28.18593 113.21806 220 ft 18 kts 177°
2026-05-07 11:19 28.18469 113.21813 217 ft 17 kts 177°
2026-05-07 11:20 28.18353 113.21820 218 ft 16 kts 177°
2026-05-07 11:20 28.18245 113.21826 219 ft 15 kts 176°
2026-05-07 11:20 28.18112 113.21835 221 ft 27 kts 178°
2026-05-07 11:20 28.17926 113.21844 222 ft 26 kts 176°
2026-05-07 11:21 28.17758 113.21880 225 ft 23 kts 129°
2026-05-07 11:21 28.17771 113.22032 227 ft 16 kts 55°
2026-05-07 11:21 28.17825 113.22043 225 ft 11 kts 352°
2026-05-07 11:21 28.18070 113.22026 223 ft 68 kts 356°
2026-05-07 11:22 28.18764 113.21983 215 ft 130 kts 356°
2026-05-07 11:22 28.19758 113.21914 483 ft 147 kts 355°
2026-05-07 11:22 28.20770 113.21839 1094 ft 144 kts 357°
2026-05-07 11:22 28.21748 113.21763 1765 ft 138 kts
2026-05-07 11:23 28.22769 113.21710 2202 ft 161 kts
2026-05-07 11:23 28.23986 113.21656 2579 ft 186 kts
2026-05-07 11:23 28.25329 113.21584 3127 ft 199 kts
2026-05-07 11:23 28.26738 113.21526 3828 ft 206 kts
2026-05-07 11:24 28.28126 113.21896 4697 ft 205 kts 28°
2026-05-07 11:24 28.29222 113.22948 5453 ft 213 kts 51°
2026-05-07 11:24 28.30104 113.24329 6243 ft 218 kts 54°
2026-05-07 11:24 28.30962 113.25793 6979 ft 227 kts 55°
2026-05-07 11:25 28.31835 113.27314 7729 ft 234 kts 56°
2026-05-07 11:25 28.32741 113.28880 8487 ft 241 kts 55°
2026-05-07 11:25 28.33681 113.30489 9224 ft 251 kts 54°
2026-05-07 11:25 28.34693 113.32207 9709 ft 269 kts 53°
2026-05-07 11:26 28.35759 113.34014 10283 ft 285 kts 54°
2026-05-07 11:26 28.36908 113.35956 10631 ft 308 kts 54°
2026-05-07 11:26 28.38145 113.38049 10944 ft 330 kts 54°
2026-05-07 11:26 28.39463 113.40280 11275 ft 350 kts 54°
2026-05-07 11:27 28.40841 113.42614 11786 ft 360 kts 54°
2026-05-07 11:27 28.42387 113.44863 12456 ft 363 kts 44°
2026-05-07 11:27 28.44372 113.46663 13152 ft 365 kts 28°
2026-05-07 11:27 28.46718 113.47751 13832 ft 366 kts 11°
2026-05-07 11:28 28.49244 113.48163 14473 ft 368 kts
2026-05-07 11:28 28.51807 113.48356 15157 ft 370 kts
2026-05-07 11:28 28.54391 113.48519 15849 ft 373 kts
2026-05-07 11:28 28.56959 113.48685 16516 ft 376 kts
2026-05-07 11:29 28.59584 113.48862 17177 ft 379 kts
2026-05-07 11:29 28.62232 113.49046 17817 ft 383 kts
2026-05-07 11:29 28.64903 113.49234 18417 ft 386 kts
2026-05-07 11:29 28.67595 113.49426 18914 ft 389 kts
2026-05-07 11:30 28.70309 113.49620 19416 ft 393 kts
2026-05-07 11:30 28.73046 113.49817 19922 ft 396 kts
2026-05-07 11:30 28.75806 113.50016 20419 ft 399 kts 360°
2026-05-07 11:30 28.78586 113.50215 20925 ft 402 kts 360°
2026-05-07 11:31 28.81391 113.50416 21440 ft 405 kts 359°
2026-05-07 11:31 28.84213 113.50618 21969 ft 408 kts 359°
2026-05-07 11:31 28.87052 113.50822 22504 ft 410 kts 359°
2026-05-07 11:31 28.89912 113.51027 23017 ft 414 kts 359°
2026-05-07 11:32 28.95701 113.51443 23929 ft 420 kts 359°
2026-05-07 11:32 28.98629 113.51654 24322 ft 423 kts 359°
2026-05-07 11:32 29.01581 113.51865 24722 ft 427 kts 358°
2026-05-07 11:33 29.04559 113.52080 25112 ft 431 kts 358°
2026-05-07 11:33 29.07561 113.52298 25511 ft 434 kts 358°
2026-05-07 11:33 29.10584 113.52517 25893 ft 437 kts 358°
2026-05-07 11:33 29.13629 113.52737 26260 ft 440 kts 358°
2026-05-07 11:34 29.16695 113.52958 26625 ft 443 kts 358°
2026-05-07 11:34 29.19781 113.53181 26996 ft 446 kts 358°
2026-05-07 11:34 29.22888 113.53405 27338 ft 449 kts 358°
2026-05-07 11:34 29.26019 113.53629 27662 ft 452 kts 358°
2026-05-07 11:35 29.29168 113.53862 27968 ft 455 kts 358°
2026-05-07 11:35 29.32338 113.54120 28303 ft 458 kts 359°
2026-05-07 11:35 29.35528 113.54395 28630 ft 461 kts 358°
2026-05-07 11:35 29.38687 113.54674 29024 ft 462 kts 358°
2026-05-07 11:36 29.41902 113.54960 29361 ft 465 kts 358°
2026-05-07 11:36 29.45181 113.55249 29671 ft 467 kts 358°
2026-05-07 11:36 29.48389 113.55526 29972 ft 469 kts 358°
2026-05-07 11:36 29.51660 113.55809 30217 ft 473 kts 358°
2026-05-07 11:37 29.54947 113.56095 30537 ft 474 kts 358°
2026-05-07 11:37 29.58272 113.56388 30981 ft 471 kts 358°
2026-05-07 11:37 29.61487 113.56673 31473 ft 469 kts 357°
2026-05-07 11:37 29.64722 113.56961 32011 ft 464 kts 356°
2026-05-07 11:38 29.67926 113.57244 32485 ft 461 kts 356°
2026-05-07 11:38 29.71117 113.57523 32904 ft 459 kts 356°
2026-05-07 11:38 29.74297 113.57799 33321 ft 457 kts 356°
2026-05-07 11:38 29.77465 113.58074 33730 ft 456 kts 356°
2026-05-07 11:39 29.80621 113.58348 34118 ft 454 kts 356°
2026-05-07 11:39 29.83770 113.58622 34437 ft 453 kts 355°
2026-05-07 11:39 29.86911 113.58895 34770 ft 453 kts 355°
2026-05-07 11:39 29.90044 113.59169 35121 ft 450 kts 355°
2026-05-07 11:40 29.93166 113.59625 35424 ft 457 kts
2026-05-07 11:40 29.96270 113.60597 35674 ft 468 kts 11°
2026-05-07 11:40 29.99332 113.61920 35915 ft 471 kts 13°
2026-05-07 11:40 30.01346 113.62863 36071 ft 473 kts 14°
2026-05-07 11:41 30.04374 113.64351 36303 ft 474 kts 14°
2026-05-07 11:41 30.07391 113.65875 36534 ft 474 kts 15°
2026-05-07 11:41 30.10415 113.67416 36768 ft 474 kts 14°
2026-05-07 11:41 30.13433 113.68952 37047 ft 474 kts 14°
2026-05-07 11:42 30.16453 113.70481 37150 ft 474 kts 14°
2026-05-07 11:42 30.22489 113.73516 37156 ft 473 kts 14°
2026-05-07 11:43 30.28529 113.76540 37156 ft 473 kts 14°
2026-05-07 11:43 30.34560 113.79562 37155 ft 472 kts 14°
2026-05-07 11:44 30.40591 113.82589 37162 ft 472 kts 14°
2026-05-07 11:44 30.46612 113.85617 37165 ft 471 kts 14°
2026-05-07 11:45 30.52630 113.88645 37157 ft 472 kts 14°
2026-05-07 11:45 30.58650 113.91678 37163 ft 472 kts 14°
2026-05-07 11:46 30.64671 113.94707 37170 ft 471 kts 13°
2026-05-07 11:46 30.70700 113.97654 37171 ft 471 kts 14°
2026-05-07 11:47 30.76663 114.00897 37174 ft 474 kts 16°
2026-05-07 11:47 30.82608 114.04212 37214 ft 474 kts 15°
2026-05-07 11:48 30.88534 114.07449 37167 ft 473 kts 15°
2026-05-07 11:48 30.94509 114.10687 37178 ft 474 kts 15°
2026-05-07 11:49 31.00491 114.13931 37174 ft 474 kts 15°
2026-05-07 11:49 31.06470 114.17178 37198 ft 474 kts 15°
2026-05-07 11:50 31.12449 114.20429 37180 ft 474 kts 15°
2026-05-07 11:50 31.18433 114.23688 37178 ft 475 kts 15°
2026-05-07 11:51 31.24415 114.26947 37185 ft 475 kts 15°
2026-05-07 11:51 31.30398 114.30214 37204 ft 475 kts 15°
2026-05-07 11:52 31.36484 114.32764 37189 ft 453 kts 360°
2026-05-07 11:52 31.42640 114.33429 37190 ft 441 kts 352°
2026-05-07 11:53 31.48761 114.33639 37187 ft 439 kts 351°
2026-05-07 11:53 31.54875 114.33764 37190 ft 440 kts 351°
2026-05-07 11:54 31.60995 114.33913 37198 ft 440 kts 351°
2026-05-07 11:54 31.67120 114.34086 37195 ft 440 kts 351°
2026-05-07 11:55 31.73249 114.34270 37205 ft 441 kts 351°
2026-05-07 11:55 31.79341 114.34459 37234 ft 440 kts 351°
2026-05-07 11:56 31.85445 114.34650 37210 ft 438 kts 351°
2026-05-07 11:56 31.91511 114.34830 37209 ft 437 kts 351°
2026-05-07 11:57 31.97618 114.35011 37214 ft 437 kts 351°
2026-05-07 11:57 32.03703 114.35194 37251 ft 437 kts 351°
2026-05-07 11:58 32.09774 114.35380 37213 ft 436 kts 351°
2026-05-07 11:58 32.15834 114.35564 37216 ft 435 kts 351°
2026-05-07 11:59 32.21891 114.35747 37218 ft 435 kts 351°
2026-05-07 11:59 32.27958 114.36010 37264 ft 438 kts 352°
2026-05-07 12:00 32.34048 114.36547 37223 ft 439 kts 354°
2026-05-07 12:00 32.40130 114.37150 37229 ft 438 kts 353°
2026-05-07 12:01 32.46205 114.37731 37231 ft 438 kts 353°
2026-05-07 12:01 32.52282 114.38292 37259 ft 438 kts 353°
2026-05-07 12:02 32.58350 114.38847 37229 ft 437 kts 353°
2026-05-07 12:02 32.64405 114.39402 37229 ft 436 kts 353°
2026-05-07 12:03 32.70457 114.39961 37227 ft 436 kts 353°
2026-05-07 12:03 32.76510 114.40524 37253 ft 436 kts 353°
2026-05-07 12:04 32.82568 114.41088 37234 ft 437 kts 353°
2026-05-07 12:04 32.88627 114.41654 37238 ft 437 kts 353°
2026-05-07 12:05 32.94684 114.42220 37234 ft 437 kts 353°
2026-05-07 12:05 33.00745 114.42787 37281 ft 437 kts 353°
2026-05-07 12:06 33.06810 114.43355 37238 ft 437 kts 353°
2026-05-07 12:06 33.12883 114.43925 37238 ft 438 kts 353°
2026-05-07 12:07 33.18958 114.44496 37240 ft 438 kts 353°
2026-05-07 12:07 33.25031 114.45068 37271 ft 438 kts 353°
2026-05-07 12:08 33.31101 114.45641 37243 ft 437 kts 353°
2026-05-07 12:08 33.37164 114.46210 37246 ft 437 kts 353°
2026-05-07 12:09 33.43229 114.46780 37246 ft 437 kts 353°
2026-05-07 12:09 33.49297 114.47352 37275 ft 437 kts 353°
2026-05-07 12:10 33.55358 114.47924 37257 ft 437 kts 353°
2026-05-07 12:10 33.61417 114.48497 37249 ft 437 kts 353°
2026-05-07 12:11 33.67477 114.49065 37252 ft 437 kts 353°
2026-05-07 12:11 33.73497 114.49626 37279 ft 437 kts 353°
2026-05-07 12:12 33.79558 114.50194 37258 ft 437 kts 353°
2026-05-07 12:12 33.85615 114.50762 37256 ft 437 kts 353°
2026-05-07 12:13 33.91672 114.51333 37254 ft 437 kts 353°
2026-05-07 12:13 33.97731 114.51904 37254 ft 437 kts 353°
2026-05-07 12:14 34.03790 114.52477 37257 ft 437 kts 353°
2026-05-07 12:14 34.09849 114.53050 37266 ft 437 kts 353°
2026-05-07 12:15 34.15910 114.53625 37268 ft 437 kts 353°
2026-05-07 12:15 34.21968 114.54200 37263 ft 437 kts 353°
2026-05-07 12:16 34.28032 114.54775 37262 ft 437 kts 353°
2026-05-07 12:16 34.34103 114.55353 37262 ft 437 kts 353°
2026-05-07 12:17 34.40171 114.55932 37270 ft 438 kts 353°
2026-05-07 12:17 34.46245 114.56512 37270 ft 438 kts 353°
2026-05-07 12:18 34.52315 114.57088 37269 ft 438 kts 353°
2026-05-07 12:18 34.58385 114.57663 37270 ft 438 kts 353°
2026-05-07 12:19 34.64454 114.58238 37270 ft 438 kts 353°
2026-05-07 12:19 34.70481 114.58812 37272 ft 437 kts 353°
2026-05-07 12:20 34.76535 114.59389 37270 ft 437 kts 353°
2026-05-07 12:20 34.82593 114.59966 37277 ft 437 kts 353°
2026-05-07 12:21 34.88652 114.60544 37308 ft 437 kts 353°
2026-05-07 12:21 34.94702 114.61124 37279 ft 436 kts 353°
2026-05-07 12:22 35.00744 114.61703 37279 ft 435 kts 353°
2026-05-07 12:22 35.06784 114.62282 37278 ft 435 kts 353°
2026-05-07 12:23 35.12824 114.62861 37296 ft 435 kts 353°
2026-05-07 12:23 35.18853 114.63443 37281 ft 434 kts 353°
2026-05-07 12:24 35.24874 114.64023 37278 ft 434 kts 353°
2026-05-07 12:24 35.30894 114.64603 37279 ft 434 kts 353°
2026-05-07 12:25 35.36913 114.65185 37280 ft 433 kts 353°
2026-05-07 12:25 35.42914 114.65767 37281 ft 432 kts 353°
2026-05-07 12:26 35.48910 114.66348 37281 ft 432 kts 353°
2026-05-07 12:26 35.54907 114.66929 37281 ft 432 kts 353°
2026-05-07 12:27 35.60902 114.67511 37283 ft 432 kts 353°
2026-05-07 12:27 35.66896 114.68095 37286 ft 432 kts 353°
2026-05-07 12:28 35.72886 114.68680 37279 ft 432 kts 353°
2026-05-07 12:28 35.77868 114.69166 37283 ft 432 kts 353°
2026-05-07 12:29 35.83856 114.69751 37280 ft 432 kts 353°
2026-05-07 12:29 35.89851 114.70338 37283 ft 432 kts 353°
2026-05-07 12:30 35.95889 114.70931 37285 ft 432 kts 353°
2026-05-07 12:30 36.01882 114.71520 37322 ft 432 kts 353°
2026-05-07 12:31 36.07860 114.72111 37283 ft 430 kts 353°
2026-05-07 12:31 36.13824 114.72695 37284 ft 430 kts 353°
2026-05-07 12:32 36.19744 114.73272 37286 ft 430 kts 353°
2026-05-07 12:32 36.25707 114.73855 37283 ft 430 kts 353°
2026-05-07 12:33 36.34695 114.74796 37281 ft 435 kts 356°
2026-05-07 12:33 36.37694 114.75586 37279 ft 448 kts
2026-05-07 12:33 36.40660 114.76932 37281 ft 457 kts 11°
2026-05-07 12:34 36.46518 114.80141 37292 ft 462 kts 13°
2026-05-07 12:34 36.52323 114.83562 37273 ft 462 kts 14°
2026-05-07 12:35 36.58086 114.86961 37273 ft 461 kts 13°
2026-05-07 12:35 36.63897 114.90356 37272 ft 461 kts 13°
2026-05-07 12:36 36.69742 114.93759 37270 ft 460 kts 13°
2026-05-07 12:36 36.75491 114.97107 37270 ft 459 kts 13°
2026-05-07 12:37 36.81279 115.00482 37270 ft 459 kts 13°
2026-05-07 12:37 36.87069 115.03867 37273 ft 459 kts 12°
2026-05-07 12:38 36.92849 115.07254 37268 ft 459 kts 12°
2026-05-07 12:38 36.98625 115.10641 37268 ft 459 kts 12°
2026-05-07 12:39 37.04400 115.14034 37302 ft 459 kts 12°
2026-05-07 12:39 37.10162 115.17429 37259 ft 457 kts 11°
2026-05-07 12:40 37.15913 115.20820 37260 ft 457 kts 11°
2026-05-07 12:40 37.21663 115.24214 37215 ft 457 kts 12°
2026-05-07 12:41 37.24535 115.25913 37008 ft 456 kts 11°
2026-05-07 12:41 37.27403 115.27611 36756 ft 456 kts 11°
2026-05-07 12:41 37.30276 115.29311 36502 ft 457 kts 11°
2026-05-07 12:41 37.33162 115.31018 36248 ft 459 kts 11°
2026-05-07 12:42 37.36055 115.32732 36004 ft 461 kts 11°
2026-05-07 12:42 37.38961 115.34455 35768 ft 463 kts 11°
2026-05-07 12:42 37.41875 115.36186 35567 ft 464 kts 11°
2026-05-07 12:42 37.44799 115.37925 35323 ft 465 kts 11°
2026-05-07 12:43 37.47729 115.39671 35097 ft 466 kts 11°
2026-05-07 12:43 37.50661 115.41419 34859 ft 467 kts 11°
2026-05-07 12:43 37.53606 115.43176 34618 ft 469 kts 11°
2026-05-07 12:43 37.56554 115.44936 34401 ft 470 kts 11°
2026-05-07 12:44 37.59514 115.46704 34130 ft 471 kts 11°
2026-05-07 12:44 37.62481 115.48480 33764 ft 472 kts 10°
2026-05-07 12:44 37.65445 115.50257 33244 ft 471 kts 10°
2026-05-07 12:44 37.68396 115.52031 32736 ft 469 kts 11°
2026-05-07 12:45 37.71335 115.53797 32238 ft 467 kts 11°
2026-05-07 12:45 37.74270 115.55561 31747 ft 466 kts 11°
2026-05-07 12:45 37.77179 115.57133 31272 ft 453 kts
2026-05-07 12:45 37.80195 115.58148 30831 ft 433 kts 356°
2026-05-07 12:46 37.83081 115.58503 30365 ft 414 kts 349°
2026-05-07 12:46 37.85928 115.58491 29826 ft 405 kts 347°
2026-05-07 12:46 37.88719 115.58356 29273 ft 398 kts 346°
2026-05-07 12:46 37.91463 115.58156 28729 ft 392 kts 346°
2026-05-07 12:47 37.94170 115.57929 28188 ft 387 kts 346°
2026-05-07 12:47 37.96843 115.57700 27666 ft 383 kts 346°
2026-05-07 12:47 37.99488 115.57479 27152 ft 379 kts 347°
2026-05-07 12:47 38.02103 115.57268 26670 ft 374 kts 348°
2026-05-07 12:48 38.04687 115.57066 26176 ft 370 kts 348°
2026-05-07 12:48 38.07244 115.56873 25690 ft 366 kts 349°
2026-05-07 12:48 38.09776 115.56725 25207 ft 363 kts 350°
2026-05-07 12:48 38.12283 115.56590 24734 ft 358 kts 351°
2026-05-07 12:49 38.14755 115.56440 24269 ft 353 kts 351°
2026-05-07 12:49 38.17194 115.56279 23812 ft 349 kts 351°
2026-05-07 12:49 38.19604 115.56111 23277 ft 345 kts 351°
2026-05-07 12:49 38.21987 115.55942 22734 ft 341 kts 351°
2026-05-07 12:50 38.24355 115.55829 22199 ft 342 kts 355°
2026-05-07 12:50 38.26735 115.56157 21675 ft 348 kts
2026-05-07 12:50 38.29069 115.57065 21161 ft 353 kts 13°
2026-05-07 12:50 38.31343 115.58268 20660 ft 354 kts 17°
2026-05-07 12:51 38.33572 115.59608 20163 ft 354 kts 19°
2026-05-07 12:51 38.35769 115.61012 19667 ft 353 kts 20°
2026-05-07 12:51 38.37946 115.62431 19175 ft 351 kts 21°
2026-05-07 12:51 38.40113 115.63842 18707 ft 348 kts 21°
2026-05-07 12:52 38.42270 115.65234 18243 ft 347 kts 21°
2026-05-07 12:52 38.44422 115.66610 17706 ft 345 kts 21°
2026-05-07 12:52 38.46565 115.67970 17177 ft 343 kts 21°
2026-05-07 12:52 38.48696 115.69318 16656 ft 340 kts 21°
2026-05-07 12:53 38.50811 115.70652 16148 ft 338 kts 22°
2026-05-07 12:53 38.52911 115.71976 15858 ft 335 kts 22°
2026-05-07 12:53 38.55001 115.73295 15810 ft 335 kts 22°
2026-05-07 12:53 38.57092 115.74616 15810 ft 335 kts 22°
2026-05-07 12:54 38.59179 115.75936 15807 ft 335 kts 22°
2026-05-07 12:54 38.61265 115.77257 15816 ft 335 kts 22°
2026-05-07 12:54 38.63323 115.78561 15809 ft 334 kts 22°
2026-05-07 12:54 38.65396 115.79911 15807 ft 336 kts 25°
2026-05-07 12:55 38.67358 115.81632 15742 ft 339 kts 33°
2026-05-07 12:55 38.69163 115.83518 15624 ft 340 kts 35°
2026-05-07 12:55 38.70970 115.85469 15504 ft 340 kts 35°
2026-05-07 12:55 38.72797 115.87448 15373 ft 339 kts 36°
2026-05-07 12:56 38.74598 115.89395 15246 ft 339 kts 36°
2026-05-07 12:56 38.76372 115.91311 15121 ft 338 kts 36°
2026-05-07 12:56 38.78169 115.93249 15002 ft 338 kts 36°
2026-05-07 12:56 38.79965 115.95188 14892 ft 337 kts 35°
2026-05-07 12:57 38.81756 115.97121 14771 ft 336 kts 35°
2026-05-07 12:57 38.83542 115.99050 14648 ft 335 kts 35°
2026-05-07 12:57 38.85323 116.00974 14526 ft 334 kts 36°
2026-05-07 12:57 38.87100 116.02895 14407 ft 334 kts 36°
2026-05-07 12:58 38.88875 116.04815 14281 ft 333 kts 36°
2026-05-07 12:58 38.90646 116.06732 14162 ft 333 kts 36°
2026-05-07 12:58 38.92412 116.08645 14044 ft 332 kts 36°
2026-05-07 12:58 38.94176 116.10557 13924 ft 332 kts 36°
2026-05-07 12:59 38.95988 116.12366 13610 ft 328 kts 29°
2026-05-07 12:59 38.97955 116.13825 13047 ft 324 kts 24°
2026-05-07 12:59 38.99942 116.15140 12521 ft 320 kts 23°
2026-05-07 12:59 39.01924 116.16407 11985 ft 317 kts 23°
2026-05-07 13:00 39.03893 116.17649 11454 ft 314 kts 23°
2026-05-07 13:00 39.05848 116.18876 10993 ft 311 kts 23°
2026-05-07 13:00 39.07792 116.20092 10827 ft 311 kts 23°
2026-05-07 13:00 39.09737 116.21309 10810 ft 311 kts 23°
2026-05-07 13:01 39.11681 116.22525 10807 ft 311 kts 23°
2026-05-07 13:01 39.13616 116.23734 10511 ft 307 kts 23°
2026-05-07 13:01 39.15498 116.24915 10287 ft 295 kts 23°
2026-05-07 13:01 39.17309 116.26051 10112 ft 284 kts 22°
2026-05-07 13:02 39.19028 116.27131 9882 ft 275 kts 22°
2026-05-07 13:02 39.20755 116.28213 9482 ft 271 kts 22°
2026-05-07 13:02 39.22424 116.29258 9057 ft 270 kts 22°
2026-05-07 13:02 39.24108 116.30313 8602 ft 269 kts 22°
2026-05-07 13:03 39.25788 116.31366 8161 ft 268 kts 23°
2026-05-07 13:03 39.27455 116.32413 7934 ft 266 kts 23°
2026-05-07 13:03 39.29122 116.33459 7909 ft 267 kts 23°
2026-05-07 13:03 39.30793 116.34509 7902 ft 268 kts 23°
2026-05-07 13:04 39.32470 116.35563 7910 ft 268 kts 23°
2026-05-07 13:04 39.34148 116.36619 7906 ft 268 kts 23°
2026-05-07 13:04 39.35827 116.37677 7891 ft 268 kts 23°
2026-05-07 13:04 39.37504 116.38734 7880 ft 268 kts 23°
2026-05-07 13:05 39.39183 116.39792 7880 ft 268 kts 23°
2026-05-07 13:05 39.40862 116.40851 7880 ft 268 kts 23°
2026-05-07 13:05 39.42539 116.41909 7880 ft 268 kts 23°
2026-05-07 13:05 39.44217 116.42969 7880 ft 268 kts 23°
2026-05-07 13:06 39.45897 116.44031 7880 ft 269 kts 23°
2026-05-07 13:06 39.47562 116.45126 7879 ft 269 kts 27°
2026-05-07 13:06 39.49133 116.46457 7679 ft 270 kts 32°
2026-05-07 13:06 39.50650 116.47884 7437 ft 269 kts 33°
2026-05-07 13:07 39.52156 116.49326 7186 ft 269 kts 34°
2026-05-07 13:07 39.53657 116.50765 6946 ft 268 kts 34°
2026-05-07 13:07 39.55157 116.52200 6697 ft 268 kts 34°
2026-05-07 13:07 39.56655 116.53632 6448 ft 267 kts 34°
2026-05-07 13:08 39.58151 116.55061 6197 ft 267 kts 34°
2026-05-07 13:08 39.59640 116.56484 5968 ft 265 kts 34°
2026-05-07 13:08 39.61127 116.57911 5912 ft 267 kts 33°
2026-05-07 13:08 39.62627 116.59344 5910 ft 268 kts 33°
2026-05-07 13:09 39.64129 116.60778 5906 ft 268 kts 33°
2026-05-07 13:09 39.65632 116.62201 5907 ft 266 kts 31°
2026-05-07 13:09 39.67260 116.63248 5702 ft 258 kts 12°
2026-05-07 13:09 39.69023 116.63415 5352 ft 253 kts 354°
2026-05-07 13:10 39.70767 116.63152 5022 ft 251 kts 351°
2026-05-07 13:10 39.72493 116.62862 4697 ft 249 kts 351°
2026-05-07 13:10 39.74208 116.62582 4378 ft 247 kts 351°
2026-05-07 13:10 39.75912 116.62308 4069 ft 246 kts 352°
2026-05-07 13:11 39.77604 116.62041 3760 ft 244 kts 352°
2026-05-07 13:11 39.79289 116.61780 3441 ft 243 kts 352°
2026-05-07 13:11 39.80945 116.61528 3132 ft 243 kts 352°
2026-05-07 13:11 39.82673 116.61264 2998 ft 247 kts 352°
2026-05-07 13:12 39.84320 116.61015 2981 ft 230 kts 352°
2026-05-07 13:12 39.85841 116.60785 3003 ft 209 kts 352°
2026-05-07 13:12 39.87213 116.60577 2978 ft 190 kts 352°
2026-05-07 13:12 39.88497 116.60378 2984 ft 184 kts 352°
2026-05-07 13:13 39.89769 116.60176 2988 ft 184 kts 352°
2026-05-07 13:13 39.91022 116.59974 2989 ft 184 kts 352°
2026-05-07 13:13 39.92293 116.59771 2989 ft 184 kts 352°
2026-05-07 13:13 39.93564 116.59572 2843 ft 184 kts 352°
2026-05-07 13:14 39.94832 116.59377 2584 ft 183 kts 352°
2026-05-07 13:14 39.96071 116.59184 2315 ft 174 kts 352°
2026-05-07 13:14 39.97226 116.59006 2086 ft 160 kts 352°
2026-05-07 13:14 39.98264 116.58846 1913 ft 143 kts 352°
2026-05-07 13:15 39.99215 116.58697 1702 ft 132 kts 352°
2026-05-07 13:15 40.00110 116.58556 1538 ft 129 kts 352°
2026-05-07 13:15 40.01003 116.58415 1368 ft 130 kts 352°
2026-05-07 13:15 40.01901 116.58274 1197 ft 130 kts 352°
2026-05-07 13:16 40.02510 116.58179 1084 ft 131 kts 352°
2026-05-07 13:16 40.03417 116.58037 915 ft 131 kts 352°
2026-05-07 13:16 40.04323 116.57895 740 ft 131 kts 352°
2026-05-07 13:16 40.05227 116.57755 563 ft 130 kts 352°
2026-05-07 13:17 40.06127 116.57619 402 ft 130 kts 352°
2026-05-07 13:17 40.07018 116.57478 231 ft 128 kts 352°
2026-05-07 13:17 40.07890 116.57356 126 ft 120 kts 353°
2026-05-07 13:17 40.08564 116.57233 125 ft 73 kts 353°
2026-05-07 13:18 40.08940 116.57174 126 ft 48 kts 352°
2026-05-07 13:18 40.09196 116.57190 126 ft 26 kts 15°
2026-05-07 13:18 40.09311 116.57244 125 ft 14 kts 23°
2026-05-07 13:18 40.09323 116.57253 125 ft 0 kts 34°
2026-05-07 13:20 40.09345 116.57284 127 ft 10 kts 62°
2026-05-07 13:20 40.09312 116.57341 125 ft 8 kts 172°
2026-05-07 13:21 40.09251 116.57349 125 ft 14 kts 174°
2026-05-07 13:21 40.09115 116.57370 126 ft 23 kts 173°
2026-05-07 13:21 40.08954 116.57396 126 ft 23 kts 173°
2026-05-07 13:21 40.08789 116.57421 125 ft 24 kts 172°
2026-05-07 13:22 40.08621 116.57447 126 ft 25 kts 173°
2026-05-07 13:22 40.08450 116.57473 125 ft 25 kts 174°
2026-05-07 13:22 40.08304 116.57517 125 ft 14 kts 126°
2026-05-07 13:22 40.08305 116.57643 128 ft 17 kts 82°
2026-05-07 13:23 40.08319 116.57795 127 ft 17 kts 82°
2026-05-07 13:23 40.08334 116.57950 128 ft 17 kts 84°
2026-05-07 13:23 40.08348 116.58105 126 ft 17 kts 83°
2026-05-07 13:23 40.08362 116.58264 127 ft 18 kts 83°
2026-05-07 13:24 40.08376 116.58401 126 ft 11 kts 83°
2026-05-07 13:24 40.08377 116.58420 127 ft 0 kts 83°
2026-05-07 13:26 40.08378 116.58461 125 ft 8 kts 98°
2026-05-07 13:27 40.08340 116.58500 126 ft 7 kts 167°
2026-05-07 13:27 40.08308 116.58534 125 ft 5 kts 110°
2026-05-07 13:27 40.08301 116.58584 127 ft 5 kts 109°
2026-05-07 13:27 40.08274 116.58614 124 ft 5 kts 151°
2026-05-07 13:28 40.08248 116.58631 127 ft 0 kts 153°
2026-05-07 13:28 40.08247 116.58632 127 ft 0 kts 153°
2026-05-07 13:28 40.08246 116.58632 127 ft 0 kts 153°